Orbital elements:
2001 RB18                                                Earth MOID = 0.0726 AU
Epoch 2006 Mar. 6.0 TT = JDT 2453800.5                  MPC
M  80.94700              (2000.0)            P               Q
n   0.27427753     Peri.  175.09262     +0.97224205     -0.23284066
a   2.3460786      Node   198.42111     +0.21211323     +0.91866358
e   0.5428111      Incl.    4.18038     +0.09875918     +0.31912764
P   3.59           H   18.5           G   0.15           U   1
Residuals in seconds of arc
010713 608  0.6+  0.8+    011009 629  0.7-  0.1+    011103 739  0.0   1.1-
010713 608  0.5+  0.6+    011009 629  0.5-  0.1+    011103 739  0.5+  0.1+
010713 608  0.5+  0.6+    011009 629  0.4-  0.4+    011103 739  0.1-  0.2-
010820 704  1.0+  1.3+    011009 629  0.3-  0.5+    011103 739  0.5+  0.3+
010820 704  0.2+  0.3-    011009 629  1.0-  0.3-    011103 726  0.5-  0.4-
010820 704  1.1-  0.1+    011009 560  0.1-  0.2+    011103 726  0.1-  0.1-
010820 704  0.7-  0.1+    011009 560  0.2+  0.1-    011103 726  0.3-  0.5-
010820 704  1.2-  0.1-    011009 560  0.3-  0.2+    011103 726  0.4-  0.7-
010825 644  0.2-  0.4+    011009 560  0.2-  0.2+    011103 726  0.3-  0.6-
010825 644  0.2-  0.4+    011010 300  0.3-  0.3-    011103 726  0.2+  0.5-
010825 644  0.2-  0.5+    011010 300  1.0-  0.3-    011104 726  0.0   0.3-
010912 704  0.1-  1.0+    011010 300  0.4-  0.1-    011104 726  0.2-  0.2-
010912 704  0.2-  1.0+    011010 560  0.5-  0.4+    011104 726  0.0   0.2-
010912 704  0.1+  1.1+    011010 560  0.1+  0.1-    011104 726  0.4-  0.0
010912 704  0.0   1.2+    011010 560  0.1+  0.2+    011104 151  0.1+  0.3+
010912 704  0.1+  1.3+    011011 704  0.4+  0.2-    011104 151  0.1+  0.1-
010913 658  0.2-  0.5+    011011 704  0.2+  0.7+    011104 151  0.3+  0.3+
010913 658  0.0   0.3+    011011 704  0.3+  0.1-    011104 151  0.3+  0.3+
010913 658  0.0   0.2+    011011 704  0.4+  0.2-    011104 151  0.0   0.2+
010913 046  0.9+  0.7-    011011 704  0.1+  0.4-    011104 151  0.5+  0.0
010913 046  0.3-  0.0     011011 355  0.3+  0.2-    011106 866  0.5+  0.2-
010913 046  0.3+  0.2+    011011 355  0.1+  0.2-    011106 866  0.5+  0.2-
010913 165  0.6-  0.9+    011011 355  0.4+  0.2-    011106 866  0.3+  0.5-
010913 165  0.3+  0.2-    011011 355  0.4+  0.1-    011107 866  0.1-  0.5-
010913 113  0.2-  0.5+    011011 587  0.7-  0.5+    011107 866  0.1-  0.3-
010913 113  0.1-  0.2+    011011 587  0.6-  0.6+    011107 866  0.1-  0.4-
010913 113  0.2-  0.4+    011011 587  0.8-  0.5+    011107 866  0.2+  0.5-
010913 113  0.0   0.6+    011012 866 (3.8-  0.3+)   011107 866  0.2-  0.5-
010913 165  1.0-  0.4-    011012 866  0.7-  0.3+    011110 355  0.0   0.4+
010913 165  0.6-  0.0     011012 360  0.1+  0.2-    011110 355  0.5+  0.1+
010913 946  0.2+  0.7-    011012 360  0.0   0.1-    011110 355  0.2+  0.0
010913 946  0.4+  0.2-    011012 360  0.4-  0.2-    011110 355  0.1-  0.3+
010913 946  0.2+  0.3+    011013 704  0.6+  0.4+    011112 608  1.1+  1.4+
010913 946  0.9+  0.2+    011013 704  0.7+  0.4+    011112 608  0.9+  1.4+
010913 952  1.0+  0.2+    011013 704  0.4+  0.4+    011112 608  0.2-  0.4-
010913 952  0.7+  0.2+    011013 704  0.3+  0.2+    011112 608  0.9+  1.4+
010913 952  1.0+  0.3+    011013 704  0.4+  0.3+    011112 608  0.0   0.4-
010913 952  1.1+  0.1-    011013 349  0.2+  0.1-    011112 608  0.2-  0.1-
010913 952  1.1+  0.3-    011013 349  0.1-  0.1-    011113 608  0.3-  0.3-
010916 670  0.3-  0.2+    011013 349  0.3+  0.2-    011113 608  0.2-  0.3-
010916 670  0.3-  0.2+    011013 349  0.1+  0.1+    011113 608  0.2-  0.3-
010916 670  0.4-  0.2+    011013 347  0.2+  0.3-    011114 402  0.0   0.2-
010916 940  0.3+  0.5-    011013 347  0.2+  0.1-    011114 402  0.2+  0.0
010916 940 (3.6+  0.0 )   011013 347  0.3+  0.3-    011114 402  0.2+  0.0
010916 940  1.1+  0.7-    011013 151  0.2+  0.8+    011115 118  0.4+  0.1+
010916 940  1.3+  0.4+    011013 151  0.2+  0.5+    011115 118  0.2+  0.0
010916 940  0.5+  0.4+    011013 151  0.1-  0.5+    011115 644  0.0   0.3+
010916 940  1.4+  0.3+    011013 151  0.0   0.4+    011115 644  0.1+  0.4+
010916 940  1.6+  0.6+    011013 151  0.0   0.4+    011115 644  0.0   0.2+
010916 940  0.8+  0.0     011013 151  0.2-  0.6+    011116 670  0.2+  0.4-
010916 940  1.3+  1.0+    011013 215  0.4+  0.4+    011116 670  0.4+  0.2+
010916 940  0.9+  0.4-    011013 215  0.2+  0.9+    011116 670  0.6+  0.2+
010917 402  0.1-  0.2-    011013 215  0.4+  0.3+    011116 610  0.4+  0.2-
010917 402  0.1+  0.2-    011013 157  1.1+  0.6+    011116 610  0.4+  0.1-
010917 402  0.0   0.1-    011013 157  0.4+  0.4+    011116 610  0.5+  0.1-
010918 185  0.3-  0.2-    011013 157  0.0   0.4+    011116 610  0.4+  0.1-
010918 185  0.0   0.3-    011013 118  0.2+  0.2+    011116 610  0.4+  0.1-
010918 185  0.3-  0.2+    011013 118  0.2+  0.2+    011118 704  0.2+  0.2+
010918 185  0.0   0.0     011013 118  0.2+  0.3+    011118 704  0.1+  0.3+
010918 185  0.1+  0.2+    011014 402  0.4+  0.7+    011118 704  0.2+  0.1+
010918 557  0.2-  0.1+    011014 402  0.6+  0.7+    011118 704  0.1+  0.3+
010918 557  0.0   0.0     011014 402  0.7+  0.7+    011118 704  0.0   0.3+
010918 557  0.3-  0.1+    011014 610  0.3+  0.4+    011119 699  0.5-  0.2+
010918 557  0.2-  0.0     011014 610  0.3+  0.3+    011119 699  0.6-  0.1+
010918 557  0.1-  0.1-    011014 610  0.4+  0.3+    011119 699  0.4-  0.1-
010918 557  0.3-  0.1-    011014 610  0.2+  0.2+    011119 699  0.1-  0.2+
010918 557  0.0   0.2-    011014 610  0.2+  0.3+    011119 608  0.1-  0.7-
010919 322  1.1-  0.7-    011015 300  0.0   0.2-    011119 608  0.1-  0.6-
010919 322  0.1+  0.8-    011015 300  0.3+  0.3-    011119 608  0.3-  0.7-
010919 322  0.8-  0.8-    011015 300  0.3+  0.0     011119 939  0.0   0.3-
010920 118  0.1-  0.2-    011015 300  0.1+  0.6-    011119 939  0.0   0.3-
010920 118  0.1-  0.5-    011015 300  0.2-  0.4-    011119 939  0.0   0.2-
010920 118  0.1-  0.4-    011015 629  0.4-  0.6+    011120 844  0.4-  0.1-
010920 108  0.2-  0.3+    011015 629  0.2-  0.7+    011120 844  0.3-  0.2-
010920 108  1.0-  1.0-    011015 629  0.4-  0.4+    011120 844  0.6-  0.4-
010920 108  0.2-  0.9-    011015 629  0.2-  0.6+    011120 844  0.7-  0.5-
010920 108 (0.5+  2.3-)   011015 629  0.3-  0.9+    011120 699  0.1-  0.1+
010922 644  0.2-  0.3+    011017 670  0.2+  0.3+    011120 699  0.3-  0.0
010922 644  0.2-  0.4+    011017 670  0.2+  0.1-    011120 699  0.0   0.0
010922 644  0.3-  0.4+    011017 644  0.1+  0.9+    011120 699  0.1-  0.1-
010922 670  0.0   0.2-    011017 644  0.1+  0.7+    011124 130  0.4+  0.1+
010922 670  0.1+  0.1-    011017 644  0.2+  0.6+    011124 130  0.2+  0.3+
010922 670  0.2-  0.4-    011017 322  0.1-  0.1+    011124 130  0.1+  0.3+
010922 347  0.2-  0.1+    011017 322  0.4-  0.2+    011124 130  0.1+  0.2+
010922 347  0.4-  0.0     011017 322  0.2-  0.1-    011125 939  0.3+  0.0
010922 347  0.5-  1.0-    011017 322  0.0   0.0     011125 939  0.0   0.0
010922 157  0.1-  0.1+    011017 322  0.2-  0.0     011125 939  0.2-  0.1+
010922 157  0.1-  0.2+    011017 322  0.1-  0.2-    011125 322  0.1+  0.9-
010922 157  0.2-  0.2+    011017 322  0.2+  0.1+    011125 322 (3.1+  0.3-)
010924 726  0.5-  0.8-    011017 322  0.1-  0.1-    011125 322  1.9+  0.8+
010924 726  0.3+  0.5-    011017 322  0.1-  0.2-    011201 118  0.3+  0.1+
010924 726  0.1-  0.3-    011017 322  0.0   0.1-    011201 118  0.1+  0.4+
010924 726  0.4-  0.3-    011017 322  0.3+  0.2-    011201 118  0.2+  0.5+
010924 726  0.2+  0.5-    011017 322  0.1-  0.0     011207 704  1.4-  0.2-
010924 726  0.2-  0.3-    011017 322  0.2+  0.2-    011207 704  0.9-  0.1-
010925 739  0.3-  0.1+    011019 726  0.2+  0.5-    011207 704  0.9-  0.1-
010925 739  0.4-  0.0     011019 726  0.3-  0.9-    011207 704  1.3-  0.4-
010925 739  0.2+  0.1+    011019 699  0.0   0.5+    011207 704  1.0-  0.4-
010925 704 (1.0+  2.3-)   011019 699  0.0   0.6+    011208 699  0.0   0.2+
010925 704 (0.3-  4.3-)   011019 699  0.1+  0.7+    011208 699  0.3-  0.4+
010925 704  0.4+  1.8-    011019 699  0.0   0.6+    011208 699  0.5+  0.0
010925 704  0.7+  1.5-    011023 866  0.5-  0.5-    011208 699  0.4+  0.7+
010925 704  0.1+  1.3-    011023 866  0.9-  0.8-    011209 113  0.4-  0.0
010926 726 (2.1+  3.3-)   011023 866  0.7-  0.8-    011209 113  0.1+  0.4+
010926 726 (1.7-  2.6-)   011023 670  0.0   0.1-    011209 113  0.1+  0.5+
010926 726  0.0   0.4-    011023 670  0.2+  0.6+    011209 198  0.0   0.6+
010926 726  0.0   0.4-    011024 704  1.0-  1.0-    011209 198  0.2+  0.3+
010926 726  0.1+  0.5-    011024 704  0.9-  1.1-    011209 198  0.2+  0.2+
010926 726  0.0   0.2-    011024 704  1.1-  1.3-    011209 198  0.1+  0.1+
010926 610  0.0   0.3-    011024 704  0.8-  1.0-    011215 704  1.1-  1.0+
010926 610  0.0   0.2-    011024 704  1.0-  1.2-    011215 704  1.2-  1.1+
010926 610  0.1-  0.2-    011024 644  0.0   0.5+    011215 704  1.6-  0.8+
010926 610  0.1-  0.3-    011024 644  0.1+  0.5+    011215 704  1.2-  0.7+
010926 610  0.0   0.2-    011024 644  0.9+  0.5+    011217 644  0.1-  0.3+
010926 610  0.2-  0.3-    011024 300  0.1+  0.0     011217 644  0.3-  0.8+
010926 610  0.1-  0.3-    011024 300  0.1+  0.2-    011217 644  0.2+  0.3+
010926 610  0.1-  0.2-    011024 300  0.2+  0.2+    011224 608  0.3-  0.8-
010927 157  0.0   0.6+    011024 300  0.6+  0.1+    011224 608  0.0   1.0-
010927 157  0.3-  0.4+    011024 300  0.3+  0.3+    011224 608  0.3-  0.3-
010927 157  0.5-  0.4+    011024 300  0.1+  0.0     020104 608  0.3+  0.1-
010928 347  0.3+  0.4-    011029 920  0.2-  0.5+    020108 608  0.0   0.6-
010928 347  0.4-  0.2-    011029 866  1.4-  0.2-    020108 608  0.1+  0.0
010928 347  0.3-  0.1+    011029 920  0.4-  0.0     020108 608  0.1+  0.6-
011002 300  0.2+  0.3-    011029 920  0.4+  0.4+    020109 644  0.1-  0.4+
011002 300  0.8-  1.0-    011029 866  1.2-  0.6-    020109 644  0.1-  0.1+
011002 300  0.1-  0.8-    011029 920  0.2-  0.8-    020109 644  0.1-  0.9+
011002 300  0.6+  0.2-    011029 920  0.1-  0.1+    020109 209  0.4-  0.1+
011002 300  0.5+  0.3-    011029 866  0.6-  1.8-    020109 209  0.4-  0.5-
011002 118  0.4-  0.3+    011029 920  0.5+  0.9+    020109 209  0.0   0.0
011002 118  0.3+  0.1+    011029 866 (0.2+  3.6-)   020109 209  0.5+  0.5+
011002 118  0.3-  0.1+    011029 920  0.0   0.5+    020109 209  0.5+  0.5+
011003 644  1.2-  0.3-    011029 866 (0.6+  3.8-)   020109 209  0.3+  0.5+
011003 644  1.3-  0.4-    011029 920  0.7-  0.6-    020115 711  0.4-  0.6+
011003 644  1.4-  0.4-    011029 866 (0.8+  4.3-)   020115 711  0.3-  0.2+
011005 866  0.1-  0.1-    011102 151  1.7+  0.1+    020115 711  0.2-  0.2-
011005 866  0.5+  0.1-    011102 151  1.2+  0.1+    060222 291  0.1+  0.1-
011006 739  1.0-  0.8+    011102 151  0.5+  0.8-    060222 291  0.9-  0.0
011006 739  0.2+  0.0     011102 151  0.7+  0.1+    060224 291  0.4-  1.5+
011009 866  0.9+  0.5-    011102 151  1.2+  0.9-    060224 291  0.9+  1.3+
011009 866  0.6+  0.4-    011102 151  0.2+  0.5-    060224 291  1.2+  0.8+

